Tracking 25701 objects as of 3-Jul-2022
HD Live streaming from Space Station
objects crossing your sky now

MDASAT-1A

Track MDASAT-1A now!
10-day predictions


NORAD ID: 50995
Int'l Code: 2022-002M
Perigee: 524.9 km
Apogee: 538.7 km
Inclination: 97.5 °
Period: 95.1 minutes
Semi major axis: 6902 km
RCS: Unknown
Launch date: January 13, 2022
Source: South Africa (SAFR)
Launch site: AIR FORCE EASTERN TEST RANGE (AFETR)
aabbcc
Your satellite tracking list
Your tracking list is empty




NASA's NSSDC Master Catalog

Two Line Element Set (TLE):
1 50995U 22002M   22183.91525648  .00002187  00000-0  12465-3 0  9999
2 50995  97.4805 250.5508 0009976  19.4481 340.7130 15.13797069 25751
Source of the keplerian elements: AFSPC